FW4161 Weather Reports


Display with metric or nautical units.
time (UTC)temp
F
wind
direction
speed
MPH
gust
MPH
rain 1hr
in
rain 24hr
in
rain mn
in
humidity
%
barometer
mb
20260504203017 72 248 3.0 10.0 0.00 0.00 0.00 35 1010.0
20260504200016 73 270 3.0 11.0 0.00 0.00 0.00 34 1010.2
20260504193017 73 248 4.0 12.0 0.00 0.00 0.00 33 1010.7
20260504190016 73 270 5.0 13.0 0.00 0.00 0.00 34 1010.9
20260504183016 73 270 4.0 13.0 0.00 0.00 0.00 35 1011.5
20260504180017 71 248 4.0 17.0 0.00 0.00 0.00 35 1011.9
20260504173016 69 248 5.0 13.0 0.00 0.00 0.00 38 1012.2
20260504050017 47 293 2.0 4.0 0.00 0.00 0.00 57 1014.4
20260504043017 47 293 1.0 4.0 0.00 0.00 0.00 60 1014.2
20260504040017 43 0.0 2.0 0.00 0.00 0.00 66 1013.9
20260504033015 44 0.0 0.0 0.00 0.00 0.00 65 1013.7
20260504030015 47 0.0 0.0 0.00 0.00 0.00 59 1013.7
20260504023015 50 270 1.0 3.0 0.00 0.00 0.00 52 1013.7
20260504020017 52 270 1.0 6.0 0.00 0.00 0.00 47 1013.7
20260504013017 52 0.0 3.0 0.00 0.00 0.00 46 1013.4
20260504010016 52 0.0 1.0 0.00 0.00 0.00 49 1013.0
20260504003017 55 0.0 3.0 0.00 0.00 0.00 40 1012.8
20260504000017 58 270 2.0 10.0 0.00 0.00 0.00 35 1012.4
20260503233017 59 270 3.0 13.0 0.00 0.00 0.00 33 1012.1
20260503230037 60 270 4.0 11.0 0.00 0.00 0.00 31 1012.0
20260503223017 61 270 3.0 11.0 0.00 0.00 0.00 29 1011.8
20260503220017 62 270 4.0 12.0 0.00 0.00 0.00 30 1011.9
20260503213017 62 270 5.0 15.0 0.00 0.00 0.00 29 1011.8
20260503210017 61 270 5.0 17.0 0.00 0.00 0.00 29 1011.8